| time (UTC) | temp F | wind direction | speed MPH | gust MPH | rain 1hr in | rain 24hr in | rain mn in | humidity % | barometer mb |
| 20260902163321 | 94 | 279 | 2.0 | 7.0 | 0.00 | 0.00 | 0.00 | 55 | 1016.4 |
| 20260902162332 | 93 | 206 | 2.0 | 6.0 | 0.00 | 0.00 | 0.00 | 58 | 1016.3 |
| 20260902161321 | 94 | 279 | 2.0 | 8.0 | 0.00 | 0.00 | 0.00 | 56 | 1016.3 |
| 20260902160333 | 93 | 349 | 2.0 | 6.0 | 0.00 | 0.00 | 0.00 | 59 | 1016.4 |
| 20260902155340 | 92 | 278 | 1.0 | 5.0 | 0.00 | 0.00 | 0.00 | 60 | 1016.4 |
| 20260902154331 | 91 | 262 | 1.0 | 6.0 | 0.00 | 0.00 | 0.00 | 61 | 1016.4 |
| 20260902153322 | 90 | 344 | 2.0 | 7.0 | 0.00 | 0.00 | 0.00 | 62 | 1016.4 |
| 20260902152333 | 90 | 279 | 2.0 | 5.0 | 0.00 | 0.00 | 0.00 | 63 | 1016.4 |
| 20260902151321 | 90 | 300 | 1.0 | 5.0 | 0.00 | 0.00 | 0.00 | 64 | 1016.4 |
| 20260902150332 | 89 | 318 | 1.0 | 4.0 | 0.00 | 0.00 | 0.00 | 66 | 1016.4 |
| 20260902145323 | 88 | 74 | 1.0 | 3.0 | 0.00 | 0.00 | 0.00 | 67 | 1016.4 |
| 20260902144334 | 88 | 266 | 0.0 | 2.0 | 0.00 | 0.00 | 0.00 | 67 | 1016.5 |
| 20260902143345 | 87 | 246 | 0.0 | 5.0 | 0.00 | 0.00 | 0.00 | 68 | 1016.5 |
| 20260902142333 | 86 | 282 | 3.0 | 7.0 | 0.00 | 0.00 | 0.00 | 70 | 1016.4 |
| 20260902141343 | 86 | 271 | 2.0 | 6.0 | 0.00 | 0.00 | 0.00 | 70 | 1016.4 |
| 20260902140334 | 86 | 224 | 0.0 | 3.0 | 0.00 | 0.00 | 0.00 | 71 | 1016.2 |
| 20260902135339 | 85 | 245 | 0.0 | 3.0 | 0.00 | 0.00 | 0.00 | 72 | 1016.1 |
| 20260902134321 | 84 | 233 | 1.0 | 2.0 | 0.00 | 0.00 | 0.00 | 73 | 1016.1 |
| 20260902133332 | 83 | 73 | 0.0 | 1.0 | 0.00 | 0.00 | 0.00 | 79 | 1016.1 |
| 20260902132322 | 82 | 72 | 0.0 | 1.0 | 0.00 | 0.00 | 0.00 | 80 | 1015.9 |
| 20260902131333 | 81 | 72 | 1.0 | 1.0 | 0.00 | 0.00 | 0.00 | 81 | 1015.8 |
| 20260902130324 | 79 | 73 | 0.0 | 1.0 | 0.00 | 0.00 | 0.00 | 83 | 1015.7 |
| 20260902125334 | 77 | 73 | 0.0 | 1.0 | 0.00 | 0.00 | 0.00 | 86 | 1015.6 |
| 20260902124322 | 76 | 73 | 0.0 | 1.0 | 0.00 | 0.00 | 0.00 | 89 | 1015.5 |
| 20260902123333 | 75 | 72 | 0.0 | 0.0 | 0.00 | 0.00 | 0.00 | 89 | 1015.5 |
| 20260902122325 | 75 | 72 | 0.0 | 1.0 | 0.00 | 0.00 | 0.00 | 89 | 1015.4 |
| 20260902121335 | 75 | 72 | 0.0 | 1.0 | 0.00 | 0.00 | 0.00 | 89 | 1015.4 |
| 20260902120326 | 75 | 72 | 0.0 | 1.0 | 0.00 | 0.00 | 0.00 | 90 | 1015.4 |
| 20260902115336 | 75 | 72 | 0.0 | 2.0 | 0.00 | 0.00 | 0.00 | 90 | 1015.4 |
| 20260902114326 | 75 | 15 | 1.0 | 4.0 | 0.00 | 0.00 | 0.00 | 89 | 1015.4 |
| 20260902113337 | 75 | 134 | 1.0 | 1.0 | 0.00 | 0.00 | 0.00 | 89 | 1015.3 |
| 20260902112328 | 76 | 134 | 0.0 | 0.0 | 0.00 | 0.00 | 0.00 | 87 | 1015.2 |
| 20260902111340 | 77 | 134 | 0.0 | 1.0 | 0.00 | 0.00 | 0.00 | 86 | 1015.2 |
| 20260902110332 | 77 | 134 | 0.0 | 1.0 | 0.00 | 0.00 | 0.00 | 86 | 1015.1 |
| 20260902105341 | 77 | 134 | 0.0 | 1.0 | 0.00 | 0.00 | 0.00 | 86 | 1014.9 |
| 20260902104323 | 77 | 134 | 0.0 | 1.0 | 0.00 | 0.00 | 0.00 | 86 | 1015.0 |
| 20260902103343 | 77 | 134 | 0.0 | 1.0 | 0.00 | 0.00 | 0.00 | 86 | 1015.0 |
| 20260902102321 | 77 | 134 | 0.0 | 1.0 | 0.00 | 0.00 | 0.00 | 87 | 1015.1 |
| 20260902101332 | 77 | 134 | 0.0 | 1.0 | 0.00 | 0.00 | 0.00 | 87 | 1015.0 |
| 20260902100321 | 76 | 134 | 0.0 | 1.0 | 0.00 | 0.00 | 0.00 | 88 | 1015.2 |
| 20260902095332 | 76 | 134 | 0.0 | 0.0 | 0.00 | 0.00 | 0.00 | 88 | 1015.2 |
| 20260902094322 | 77 | 134 | 0.0 | 1.0 | 0.00 | 0.00 | 0.00 | 86 | 1015.2 |
| 20260902093329 | 77 | 134 | 0.0 | 1.0 | 0.00 | 0.00 | 0.00 | 86 | 1015.3 |
| 20260902092340 | 77 | 134 | 0.0 | 0.0 | 0.00 | 0.00 | 0.00 | 86 | 1015.2 |
| 20260902091330 | 77 | 134 | 0.0 | 0.0 | 0.00 | 0.00 | 0.00 | 85 | 1015.3 |
| 20260902090322 | 77 | 134 | 0.0 | 0.0 | 0.00 | 0.00 | 0.00 | 85 | 1015.4 |
| 20260902085333 | 77 | 134 | 0.0 | 0.0 | 0.00 | 0.00 | 0.00 | 85 | 1015.2 |
| 20260902084323 | 78 | 134 | 0.0 | 0.0 | 0.00 | 0.00 | 0.00 | 84 | 1015.2 |
| 20260902083334 | 78 | 134 | 0.0 | 0.0 | 0.00 | 0.00 | 0.00 | 83 | 1015.3 |
| 20260902082322 | 78 | 134 | 0.0 | 1.0 | 0.00 | 0.00 | 0.00 | 82 | 1015.2 |
| 20260902081334 | 79 | 134 | 0.0 | 1.0 | 0.00 | 0.00 | 0.00 | 82 | 1015.4 |
| 20260902080323 | 79 | 134 | 0.0 | 1.0 | 0.00 | 0.00 | 0.00 | 82 | 1015.4 |
| 20260902075333 | 79 | 134 | 0.0 | 1.0 | 0.00 | 0.00 | 0.00 | 82 | 1015.3 |
| 20260902074344 | 79 | 134 | 0.0 | 1.0 | 0.00 | 0.00 | 0.00 | 81 | 1015.4 |
| 20260902073335 | 79 | 134 | 0.0 | 1.0 | 0.00 | 0.00 | 0.00 | 81 | 1015.4 |
| 20260902072346 | 79 | 134 | 0.0 | 1.0 | 0.00 | 0.00 | 0.00 | 80 | 1015.4 |
| 20260902071328 | 80 | 134 | 0.0 | 1.0 | 0.00 | 0.00 | 0.00 | 79 | 1015.6 |
| 20260902070349 | 80 | 134 | 0.0 | 1.0 | 0.00 | 0.00 | 0.00 | 78 | 1015.5 |
| 20260902065332 | 80 | 134 | 0.0 | 4.0 | 0.00 | 0.00 | 0.00 | 77 | 1015.5 |
| 20260902064322 | 80 | 96 | 1.0 | 4.0 | 0.00 | 0.00 | 0.00 | 77 | 1015.6 |
| 20260902063333 | 81 | 89 | 0.0 | 3.0 | 0.00 | 0.00 | 0.00 | 76 | 1015.7 |
| 20260902062341 | 81 | 97 | 0.0 | 3.0 | 0.00 | 0.00 | 0.00 | 75 | 1015.6 |
| 20260902061332 | 81 | 92 | 2.0 | 5.0 | 0.00 | 0.00 | 0.00 | 74 | 1015.7 |
| 20260902060323 | 81 | 103 | 1.0 | 2.0 | 0.00 | 0.00 | 0.00 | 74 | 1015.8 |
| 20260902055334 | 82 | 118 | 0.0 | 1.0 | 0.00 | 0.00 | 0.00 | 73 | 1015.6 |
| 20260902054324 | 83 | 139 | 0.0 | 1.0 | 0.00 | 0.00 | 0.00 | 71 | 1015.4 |
| 20260902053334 | 83 | 139 | 0.0 | 1.0 | 0.00 | 0.00 | 0.00 | 70 | 1015.4 |
| 20260902052326 | 83 | 127 | 0.0 | 2.0 | 0.00 | 0.00 | 0.00 | 70 | 1015.3 |
| 20260902051333 | 84 | 133 | 0.0 | 3.0 | 0.00 | 0.00 | 0.00 | 69 | 1015.3 |
| 20260902050322 | 84 | 132 | 0.0 | 4.0 | 0.00 | 0.00 | 0.00 | 69 | 1015.3 |
| 20260902045333 | 84 | 83 | 2.0 | 3.0 | 0.00 | 0.00 | 0.00 | 69 | 1015.5 |
| 20260902044344 | 85 | 97 | 1.0 | 3.0 | 0.00 | 0.00 | 0.00 | 69 | 1015.5 |
| 20260902043332 | 85 | 122 | 1.0 | 6.0 | 0.00 | 0.00 | 0.00 | 69 | 1015.4 |
| 20260902042341 | 85 | 99 | 1.0 | 3.0 | 0.00 | 0.00 | 0.00 | 70 | 1015.4 |
| 20260902041323 | 85 | 127 | 0.0 | 2.0 | 0.00 | 0.00 | 0.00 | 69 | 1015.2 |
| 20260902040340 | 85 | 127 | 0.0 | 1.0 | 0.00 | 0.00 | 0.00 | 68 | 1015.3 |
| 20260902035323 | 86 | 127 | 0.0 | 2.0 | 0.00 | 0.00 | 0.00 | 67 | 1015.3 |
| 20260902034344 | 86 | 127 | 0.0 | 1.0 | 0.00 | 0.00 | 0.00 | 66 | 1015.2 |
| 20260902033325 | 86 | 127 | 0.0 | 1.0 | 0.00 | 0.00 | 0.00 | 66 | 1015.1 |
| 20260902032336 | 87 | 138 | 0.0 | 1.0 | 0.00 | 0.00 | 0.00 | 65 | 1015.1 |
| 20260902031327 | 87 | 138 | 0.0 | 2.0 | 0.00 | 0.00 | 0.00 | 64 | 1015.0 |
| 20260902030338 | 87 | 127 | 0.0 | 2.0 | 0.00 | 0.00 | 0.00 | 64 | 1014.8 |
| 20260902025329 | 87 | 127 | 0.0 | 1.0 | 0.00 | 0.00 | 0.00 | 63 | 1014.6 |
| 20260902024341 | 88 | 127 | 0.0 | 1.0 | 0.00 | 0.00 | 0.00 | 62 | 1014.3 |
| 20260902023332 | 88 | 127 | 0.0 | 1.0 | 0.00 | 0.00 | 0.00 | 61 | 1014.0 |
| 20260902022337 | 89 | 127 | 0.0 | 2.0 | 0.00 | 0.00 | 0.00 | 60 | 1013.9 |
| 20260902021326 | 89 | 143 | 0.0 | 2.0 | 0.00 | 0.00 | 0.00 | 59 | 1013.9 |
| 20260902020337 | 90 | 88 | 0.0 | 5.0 | 0.00 | 0.00 | 0.00 | 58 | 1013.7 |
| 20260902015328 | 90 | 122 | 0.0 | 2.0 | 0.00 | 0.00 | 0.00 | 57 | 1013.5 |
| 20260902014339 | 91 | 105 | 0.0 | 2.0 | 0.00 | 0.00 | 0.00 | 56 | 1013.4 |
| 20260902013330 | 91 | 96 | 1.0 | 4.0 | 0.00 | 0.00 | 0.00 | 55 | 1013.4 |
| 20260902012341 | 92 | 101 | 3.0 | 6.0 | 0.00 | 0.00 | 0.00 | 54 | 1013.3 |
| 20260902011333 | 92 | 72 | 2.0 | 7.0 | 0.00 | 0.00 | 0.00 | 54 | 1013.2 |
| 20260902010340 | 93 | 68 | 1.0 | 9.0 | 0.00 | 0.00 | 0.00 | 53 | 1013.1 |
| 20260902005322 | 93 | 88 | 5.0 | 9.0 | 0.00 | 0.00 | 0.00 | 52 | 1013.3 |
| 20260902004341 | 94 | 75 | 4.0 | 8.0 | 0.00 | 0.00 | 0.00 | 51 | 1013.4 |
| 20260902003324 | 95 | 114 | 1.0 | 6.0 | 0.00 | 0.00 | 0.00 | 49 | 1013.4 |
| 20260902002335 | 95 | 89 | 4.0 | 9.0 | 0.00 | 0.00 | 0.00 | 48 | 1013.4 |
| 20260902001323 | 96 | 85 | 5.0 | 11.0 | 0.00 | 0.00 | 0.00 | 48 | 1013.5 |
| 20260902000333 | 96 | 79 | 2.0 | 8.0 | 0.00 | 0.00 | 0.00 | 48 | 1013.4 |
| 20260901235325 | 97 | 86 | 3.0 | 8.0 | 0.00 | 0.00 | 0.00 | 48 | 1013.4 |
| 20260901234337 | 96 | 90 | 5.0 | 14.0 | 0.00 | 0.00 | 0.00 | 48 | 1013.4 |
| 20260901233329 | 97 | 79 | 7.0 | 11.0 | 0.00 | 0.00 | 0.00 | 48 | 1013.4 |
| 20260901232340 | 97 | 65 | 6.0 | 12.0 | 0.00 | 0.00 | 0.00 | 48 | 1013.4 |
| 20260901231332 | 97 | 81 | 5.0 | 15.0 | 0.00 | 0.00 | 0.00 | 49 | 1013.4 |
| 20260901230322 | 98 | 47 | 8.0 | 18.0 | 0.00 | 0.00 | 0.00 | 47 | 1013.5 |
| 20260901225332 | 98 | 74 | 3.0 | 6.0 | 0.00 | 0.00 | 0.00 | 47 | 1013.4 |
| 20260901224321 | 97 | 72 | 4.0 | 10.0 | 0.00 | 0.00 | 0.00 | 48 | 1013.5 |
| 20260901223332 | 98 | 90 | 6.0 | 10.0 | 0.00 | 0.00 | 0.00 | 47 | 1013.5 |
| 20260901222323 | 99 | 89 | 3.0 | 8.0 | 0.00 | 0.00 | 0.00 | 46 | 1013.4 |
| 20260901221334 | 99 | 123 | 2.0 | 7.0 | 0.00 | 0.00 | 0.00 | 46 | 1013.5 |
| 20260901220346 | 98 | 82 | 4.0 | 9.0 | 0.00 | 0.00 | 0.00 | 48 | 1013.5 |
| 20260901215337 | 97 | 34 | 3.0 | 10.0 | 0.00 | 0.00 | 0.00 | 48 | 1013.5 |
| 20260901214347 | 99 | 82 | 6.0 | 10.0 | 0.00 | 0.00 | 0.00 | 47 | 1013.5 |
| 20260901213329 | 99 | 91 | 4.0 | 7.0 | 0.00 | 0.00 | 0.00 | 45 | 1013.7 |
| 20260901212348 | 99 | 117 | 4.0 | 8.0 | 0.00 | 0.00 | 0.00 | 47 | 1013.7 |
| 20260901211330 | 97 | 29 | 3.0 | 7.0 | 0.00 | 0.00 | 0.00 | 47 | 1013.8 |
| 20260901210321 | 99 | 57 | 6.0 | 11.0 | 0.00 | 0.00 | 0.00 | 46 | 1014.0 |
| 20260901205332 | 99 | 120 | 3.0 | 7.0 | 0.00 | 0.00 | 0.00 | 46 | 1014.2 |
| 20260901204323 | 98 | 160 | 3.0 | 7.0 | 0.00 | 0.00 | 0.00 | 48 | 1014.3 |
| 20260901203330 | 98 | 107 | 2.0 | 9.0 | 0.00 | 0.00 | 0.00 | 47 | 1014.4 |
| 20260901202321 | 99 | 110 | 7.0 | 12.0 | 0.00 | 0.00 | 0.00 | 48 | 1014.5 |
| 20260901201333 | 99 | 118 | 5.0 | 12.0 | 0.00 | 0.00 | 0.00 | 47 | 1014.7 |
| 20260901200322 | 99 | 81 | 6.0 | 16.0 | 0.00 | 0.00 | 0.00 | 48 | 1014.8 |
| 20260901195333 | 100 | 190 | 3.0 | 8.0 | 0.00 | 0.00 | 0.00 | 46 | 1015.0 |
| 20260901194324 | 98 | 133 | 4.0 | 10.0 | 0.00 | 0.00 | 0.00 | 49 | 1015.1 |
| 20260901193335 | 97 | 91 | 4.0 | 7.0 | 0.00 | 0.00 | 0.00 | 49 | 1015.2 |
| 20260901192326 | 97 | 72 | 5.0 | 10.0 | 0.00 | 0.00 | 0.00 | 50 | 1015.5 |
| 20260901191337 | 97 | 212 | 3.0 | 6.0 | 0.00 | 0.00 | 0.00 | 50 | 1015.4 |
| 20260901190349 | 97 | 44 | 2.0 | 8.0 | 0.00 | 0.00 | 0.00 | 50 | 1015.8 |
| 20260901185338 | 98 | 117 | 3.0 | 8.0 | 0.00 | 0.00 | 0.00 | 49 | 1015.9 |
| 20260901184348 | 98 | 124 | 2.0 | 7.0 | 0.00 | 0.00 | 0.00 | 51 | 1015.9 |
| 20260901183331 | 97 | 181 | 4.0 | 9.0 | 0.00 | 0.00 | 0.00 | 50 | 1016.2 |
| 20260901182322 | 97 | 129 | 1.0 | 9.0 | 0.00 | 0.00 | 0.00 | 51 | 1016.4 |
| 20260901181333 | 97 | 105 | 3.0 | 5.0 | 0.00 | 0.00 | 0.00 | 52 | 1016.5 |
| 20260901180322 | 95 | 147 | 4.0 | 10.0 | 0.00 | 0.00 | 0.00 | 54 | 1016.5 |
| 20260901175333 | 95 | 70 | 6.0 | 11.0 | 0.00 | 0.00 | 0.00 | 53 | 1016.8 |
| 20260901174322 | 95 | 129 | 1.0 | 9.0 | 0.00 | 0.00 | 0.00 | 55 | 1016.9 |
| 20260901173334 | 94 | 183 | 1.0 | 5.0 | 0.00 | 0.00 | 0.00 | 56 | 1017.0 |
| 20260901172321 | 93 | 36 | 2.0 | 7.0 | 0.00 | 0.00 | 0.00 | 58 | 1017.3 |
| 20260901171332 | 93 | 124 | 2.0 | 6.0 | 0.00 | 0.00 | 0.00 | 57 | 1017.3 |
| 20260901170323 | 93 | 129 | 2.0 | 8.0 | 0.00 | 0.00 | 0.00 | 58 | 1017.4 |
| 20260901165334 | 93 | 132 | 1.0 | 8.0 | 0.00 | 0.00 | 0.00 | 57 | 1017.4 |
| 20260901164325 | 93 | 150 | 2.0 | 6.0 | 0.00 | 0.00 | 0.00 | 58 | 1017.4 |